Regional Weather Roundup
Issued by NWS Northern Indiana

Home | Current Version | Previous Version | Graphics & Text | Print | Product List | Glossary On
Versions: 1 2 3 4 5 6 7 8 9 10 11 12 13 14 15 16 17 18 19 20 21 22 23 24 25 26 27 28 29 30 31 32 33 34 35 36 37 38 39 40 41 42 43 44 45 46 47 48 49 50
000
ASUS43 KIWX 071100
RWRIWX

KIWX WEATHER ROUNDUP
NATIONAL WEATHER SERVICE NORTHERN INDIANA
700 AM EDT TUE JUL 07 2015

NOTE: "FAIR" INDICATES FEW OR NO CLOUDS BELOW 12,000 FEET WITH NO
SIGNIFICANT WEATHER AND/OR OBSTRUCTIONS TO VISIBILITY.

* THESE STATIONS ARE NOT UNDER NWS QUALITY CONTROL. THEY ALSO MAY NOT
  REPORT WEATHER SUCH AS PRECIPITATION OR FOG.

INZ001>027-071200-
NORTHERN INDIANA

CITY           SKY/WX    TMP DP  RH WIND       PRES   REMARKS
GARY*          LGT RAIN N/A N/A N/A NW17G33   29.90R
SOUTH BEND     CLOUDY    73  71  93 W5        29.86R
ELKHART*       LGT RAIN  72  70  94 SW5       29.85
GOSHEN         CLOUDY    72  70  93 SW8       29.86S
ANGOLA*          N/A     75  72  88 SW8       29.87F
FORT WAYNE     CLOUDY    75  71  87 SW13      29.89S
PERU/GRISSOM   CLOUDY    76  72  88 SW12      29.88R

$$
INZ028>050-071200-
CENTRAL INDIANA

CITY           SKY/WX    TMP DP  RH WIND       PRES   REMARKS
LAFAYETTE      CLOUDY    76  72  87 SW9       29.88R
KOKOMO*        MOCLDY    75  70  83 SW14G20   29.89S
MUNCIE*        MOCLDY    75  71  87 SW10      29.93S
INDIANAPOLIS   CLOUDY    77  70  79 SW12      29.91S

$$
MIZ043>046-050>051-056>058-064>065-071>073-077>080-071200-
SOUTHWEST LOWER MICHIGAN

CITY           SKY/WX    TMP DP  RH WIND       PRES   REMARKS
BATTLE CREEK   HVY RAIN  72  69  90 W9        29.85F VSB 1
BENTON HARBOR  LGT RAIN  65  63  93 NW10G22   29.85R FOG
COLDWATER*     LGT RAIN  73  71  94 W8        29.86S
HILLSDALE*     MOCLDY    74  74  98 SW6       29.87F FOG
HOLLAND        CLOUDY    62  59  90 W6        29.85R FOG
GRAND RAPIDS   CLOUDY    71  68  90 S8        29.82S
KALAMAZOO      LGT RAIN  72  69  90 S7        29.85S
STURGIS*       RAIN      72  70  94 SW7       29.86S
THREE RIVERS*  RAIN      74  71  91 CALM      29.85S

$$
OHZ001>008-015>018-024>025-071200-
NORTHWEST OHIO

CITY           SKY/WX    TMP DP  RH WIND       PRES   REMARKS
DEFIANCE       PTCLDY    74  70  87 S7        29.88F FOG
FINDLAY        PTCLDY    73  69  87 S9        29.92S FOG
TOLEDO EXPRESS MOCLDY    73  69  87 S7        29.88S
TOLEDO METCALF MOCLDY    73  67  81 S9        29.90S
LIMA           MOCLDY    72  69  90 S9        29.93F

$$
AND FOR LAKE MICHIGAN COASTAL AND OPEN LAKE BUOY OBSERVATIONS

STATION/POSITION TEMP    WIND        PRES    VSBY  WAVE
                 AIR SEA DIR/SP/G                  HT/PER
                 (F)     (DEG/KT/KT) (MB)    (MI)  (FT/S)
CALUMET HARBOR    61     330/ 12/ 17   N/A
MICHIGAN CITY     71     200/  9/  9   N/A
BURNS HARBOR      71     230/  9/ 10 1011.5R
SAINT JOSEPH      69     180/  8/ 12 1011.5R
4 MI NW BRIDGMAN  68 66  240/  8/ 10   N/A           1
MICHIGAN CITY     69 67  240/  6/  8   N/A           1

$$
&&



USA.gov is the U.S. government's official web portal to all federal, state and local government web resources and services.